Regional Weather Roundup
Issued by NWS

Home | Current Version | Previous Version | Graphics & Text | Print | Product List | Glossary Off
Versions: 1 2 3 4 5 6 7 8 9 10 11 12 13 14 15 16 17 18 19 20 21 22 23 24 25 26 27 28 29 30 31 32 33 34 35 36 37 38 39 40 41 42 43 44 45 46 47 48 49 50

000
ASUS43 KMKX 232211
RWRWI

WISCONSIN REGIONAL WEATHER ROUNDUP
NATIONAL WEATHER SERVICE MILWAUKEE/SULLIVAN WI
500 PM CDT THU MAR 23 2017

NOTE: "FAIR" INDICATES FEW OR NO CLOUDS BELOW 12,000 FEET WITH NO
SIGNIFICANT WEATHER AND/OR OBSTRUCTIONS TO VISIBILITY.

WIZ001-002-006>008-014>016-023>028-232300-
NORTHWEST WISCONSIN

CITY           SKY/WX    TMP DP  RH WIND       PRES   REMARKS
SUPERIOR ARPT  CLOUDY    37  26  66 S5        29.93F WCI  33
ASHLAND        CLOUDY    38  25  59 S8        29.96R WCI  32
HAYWARD        CLOUDY    37  24  59 SE10      29.87F WCI  30
SIREN          LGT RAIN  36  28  71 CALM      29.90F
CUMBERLAND     CLOUDY    36  25  64 SE17      29.87F WCI  25
RICE LAKE      DRIZZLE   39  25  56 SE16      29.93F WCI  31
CHETEK         CLOUDY    40  24  52 SE14G22   29.95F WCI  32
LADYSMITH      CLOUDY    38  24  57 S6        30.00R WCI  34
EAU CLAIRE     CLOUDY    43  24  47 SE12      29.96R
MENOMONIE      CLOUDY    42  26  53 SE9       29.95F
NEW RICHMOND   CLOUDY    39  25  55 SE13G20   29.89F WCI  32
OSCEOLA        CLOUDY    40  27  59 SE14G24   29.89R WCI  32
$$

WIZ003>005-009-010-017-018-232300-
NORTH CENTRAL WISCONSIN

CITY           SKY/WX    TMP DP  RH WIND       PRES   REMARKS
MANITOWISH WTR CLOUDY    36  21  55 S12G17    29.95S WCI  28
ARBOR VITAE    CLOUDY    37  22  54 S12       29.96S WCI  29
WOODRUFF       CLOUDY    37  22  54 S12       29.96S WCI  29
RHINELANDER    CLOUDY    38  21  50 SE12G21   29.98F WCI  30
EAGLE RIVER    CLOUDY    36  18  48 SE10      29.95F WCI  28
LAND O LAKES   CLOUDY    37  19  50 S9G16     29.97F WCI  30
PHILLIPS       CLOUDY    37  23  56 S9G17     29.96R WCI  31
TOMAHAWK       CLOUDY    38  20  49 S5        29.96F WCI  34
MEDFORD        CLOUDY    37  21  53 SE9       29.96F WCI  30
MERRILL        CLOUDY    39  20  45 SE14      29.96F WCI  31
$$

WIZ029-030-035-036-043>047-232300-
CENTRAL WISCONSIN

CITY           SKY/WX    TMP DP  RH WIND       PRES   REMARKS
WAUSAU         CLOUDY    39  20  46 SE16G23   29.95F WCI  30
MOSINEE        CLOUDY    39  19  45 SE9G18    29.98F WCI  33
MARSHFIELD     CLOUDY    40  21  46 SE9       29.96F WCI  34
STEVENS POINT  CLOUDY    38  21  49 SE13G24   29.96F WCI  30
WAUPACA        CLOUDY    44  23  44 E12       30.02F
WAUTOMA        CLOUDY    44  23  43 SE14      30.00F
WISC RAPIDS    CLOUDY    42  21  43 SE16G24   29.94F
CAMP DOUGLAS   CLOUDY    44  23  42 SE18G28   29.88F
$$

WIZ011>013-019>022-031-037>040-048>050-232300-
NORTHEAST WISCONSIN

CITY           SKY/WX    TMP DP  RH WIND       PRES   REMARKS
ANTIGO         CLOUDY    36  24  62 SE15G23   29.98F WCI  26
SHAWANO        CLOUDY    41  26  54 SE10      30.09F
OCONTO         CLOUDY    35  26  69 S10       30.12F WCI  27
STURGEON BAY   CLOUDY    35  25  66 S17G24    30.14F WCI  25
GREEN BAY      CLOUDY    37  28  70 SE16      30.11F WCI  28
MANITOWOC      CLOUDY    36  27  69 S18G24    30.15F WCI  26
APPLETON       CLOUDY    37  23  56 SE12G18   30.09F WCI  30
CLINTONVILLE   CLOUDY    41  25  52 SE13      30.07F
OSHKOSH        CLOUDY    40  27  59 SE12      30.08F WCI  33
$$

WIZ032>034-041-042-053>061-232300-
SOUTHWEST WISCONSIN

CITY           SKY/WX    TMP DP  RH WIND       PRES   REMARKS
LA CROSSE      CLOUDY    44  31  60 SE9       29.96R
SPARTA         CLOUDY    46  27  47 SW9G16    29.98R
VIROQUA        PTSUNNY   40  31  68 SW17      29.97R WCI  31
BOSCOBEL       CLOUDY    44  27  51 SE8G18    29.95F
PRAIRIE DU CHI HVY RAIN  40  31  69 SE14G22   29.95F WCI  33
PLATTEVILLE    CLOUDY    40  29  65 SE25      29.94F WCI  29
$$

WIZ056-057-062-063-064-067-068-232300-
SOUTH CENTRAL WISCONSIN

CITY           SKY/WX    TMP DP  RH WIND       PRES   REMARKS
REEDSBURG      CLOUDY    43  23  45 SE14G23   29.95F
BARABOO/DELLS  CLOUDY    43  21  41 S23G31    29.97F
LONE ROCK      LGT RAIN  43  25  49 SE23G33   29.93F
MINERAL POINT  CLOUDY    41  27  56 SE21G29   29.96F
MADISON        CLOUDY    44  20  38 S17       30.07F
MIDDLETON      CLOUDY    44  23  43 S7        30.08F
WATERTOWN      CLOUDY    45  20  37 S13       30.08F
MONROE         CLOUDY    41  25  52 SE16G22   30.08F
JANESVILLE     CLOUDY    46  21  36 SE14      30.10F
$$

WIZ051-052-058>065-066-070>072-232300-
SOUTHEAST WISCONSIN

CITY           SKY/WX    TMP DP  RH WIND       PRES   REMARKS
MILWAUKEE      CLOUDY    41  24  51 S17       30.16F
WAUKESHA       CLOUDY    37  23  56 SE13G18   30.15F WCI  29
MILWAUKEE/TIMM CLOUDY    39  19  45 SE14      30.16F WCI  31
RACINE         CLOUDY    39  26  59 SE13G23   30.17F WCI  31
KENOSHA        CLOUDY    41  25  53 SE13      30.15F
FOND DU LAC    CLOUDY    42  27  55 SE10      30.09F
SHEBOYGAN      CLOUDY    36  25  64 S16G23    30.15F WCI  26
WEST BEND      CLOUDY    37  27  65 SE7       30.13F WCI  32
JUNEAU         CLOUDY    45  21  38 S12G20    30.09F
$$

LSZ147-162-232300-
LAKE SUPERIOR

STATION/POSITION TIME  TEMP    WIND        PRES    WAVE
                       AIR SEA DIR/SP/G            HT/PER
                 (UTC) (F)     (DEG/KT/KT) (MB)    (FT/S)
DEVILS ISLAND    2200   35     190/  1/  2 1015.4S
PORT WING        2140   38     190/  4/  7 1014.6R
SAXON HARBOR     2140   41     190/  6/  9 1014.6R
$$

LMZ867-665-643>646-232300-
LAKE MICHIGAN

STATION/POSITION TIME  TEMP    WIND        PRES    WAVE
                       AIR SEA DIR/SP/G            HT/PER
                 (UTC) (F)     (DEG/KT/KT) (MB)    (FT/S)
CHAMBERS ISLAND  2140   35     170/  8/ 14 1020.3F
NORTHPORT PIER   2200   35     150/ 12/ 23 1020.3
SISTER BAY       2035   34     190/ 20/ 28   N/A
KEWAUNEE LAKESHO 2148   35     180/ 20/ 24 1021.0F
SHEBOYGAN LAKESH 2200   36     170/ 21/ 23 1021.2F
PORT WASHINGTON  2130   37     170/ 13/ 17 1022.7F
MILWAUKEE LAKESH 2150   37     160/ 16/ 17   N/A
KENOSHA   LAKESH 2200   38     150/ 13/ 16 1021.0
$$

TC  - TEMPERATURE IN CELSIUS
VSB - VISIBILITY IN STATUTE MILES
WCI - WIND CHILL INDEX
HX  - HEAT INDEX





USA.gov is the U.S. government's official web portal to all federal, state and local government web resources and services.